* Astronomy

Members Login
Post Info TOPIC: SL-4 rocket body re-entry


New

Posts: 1
Date:
SL-4 rocket body re-entry
Permalink  
 


some radio spectrum images of the reentry:

5-02.14.13-23_29_47.jpg

 

110-02.14.13-21_26_29.png



__________________


L

Posts: 130177
Date:
Permalink  
 

Komet über Köln, 13. Februar 2013



__________________


L

Posts: 130177
Date:
Permalink  
 

A SL-4 rocket body that was launched on the 11th February, 2013, from the Baikonur Cosmodrome in Kazakhstan, for the Progress M-18M/50P mission re-entered the Earths atmosphere on the 13th February, 2013 @ 21:15 GMT ± 1 minute.

SL-4 RB
1 39083U 13007B   13044.80774106  .21577666  12690-4  19891-3 0   151
2 39083 051.6213 359.9398 0006574 099.0126 261.8316 16.51047651   359

Inclination: 97.87° 
Revolution Number:    36
Predicted  Location:    49.0°N, 13.0°E



__________________
Page 1 of 1  sorted by
 
Quick Reply

Please log in to post quick replies.



Create your own FREE Forum
Report Abuse
Powered by ActiveBoard